This is the latest recevied weather packets stored in our database for station/object N8WJW. If no packets are shown the sender has not sent any weather packets the latest 10 day(s).
| Time | Temp. | Humidity | Pressure | Rain* | Wind** | Luminosity | Snow |
|---|---|---|---|---|---|---|---|
| 1778104667 | 9.44° C | 63% | 1013.7 hPa | 0 mm | - | 75 W/m² | - |
| 1778104362 | 9.44° C | 68% | 1013.9 hPa | 0 mm | - | 78 W/m² | - |
| 1778104054 | 9.44° C | 69% | 1013.6 hPa | 0 mm | - | 60 W/m² | - |
| 1778103751 | 9.44° C | 66% | 1013.6 hPa | 0 mm | - | 59 W/m² | - |
| 1778103449 | 9.44° C | 68% | 1013.7 hPa | 0 mm | - | 66 W/m² | - |
| 1778103145 | 9.44° C | 71% | 1013.2 hPa | 0 mm | - | 83 W/m² | - |
| 1778102837 | 9.44° C | 67% | 1013.6 hPa | 0 mm | - | 84 W/m² | - |
| 1778102533 | 8.89° C | 64% | 1013.5 hPa | 0 mm | - | 78 W/m² | - |
| 1778102228 | 9.44° C | 65% | 1013.6 hPa | 0 mm | - | 89 W/m² | - |
| 1778101925 | 9.44° C | 66% | 1013.6 hPa | 0 mm | - | 126 W/m² | - |
| 1778101622 | 10° C | 67% | 1013.7 hPa | 0 mm | - | 105 W/m² | - |
| 1778101319 | 10° C | 66% | 1013.6 hPa | 0 mm | - | 121 W/m² | - |
| 1778101015 | 10° C | 65% | 1013.5 hPa | 0 mm | - | 120 W/m² | - |
| 1778100711 | 10° C | 67% | 1013.4 hPa | 0 mm | - | 124 W/m² | - |
| 1778100409 | 10° C | 64% | 1013.6 hPa | 0 mm | - | 155 W/m² | - |
| 1778100105 | 10.56° C | 64% | 1013.4 hPa | 0 mm | - | 196 W/m² | - |
| 1778099804 | 10° C | 63% | 1013.3 hPa | 0 mm | - | 169 W/m² | - |
| 1778099500 | 10.56° C | 66% | 1013.5 hPa | 0 mm | - | 161 W/m² | - |
| 1778099198 | 10.56° C | 65% | 1013.4 hPa | 0 mm | - | 179 W/m² | - |
| 1778098894 | 10° C | 64% | 1013.5 hPa | 0 mm | - | 144 W/m² | - |
| 1778098591 | 10° C | 60% | 1013.1 hPa | 0 mm | - | 131 W/m² | - |
| 1778098287 | 10° C | 60% | 1013.1 hPa | 0 mm | - | 114 W/m² | - |
| 1778097984 | 10.56° C | 55% | 1013.4 hPa | 0 mm | - | 131 W/m² | - |
| 1778097681 | 11.11° C | 64% | 1013.3 hPa | 0 mm | - | 161 W/m² | - |
| 1778097378 | 11.11° C | 56% | 1013.4 hPa | 0 mm | - | 164 W/m² | - |
* Rain latest hour (hover to see other rain measurements)
** Current wind speed in m/s (hover to see current wind gust speed)